Location: Wiesbaden
(50.0830°N, 8.2500°E)
Time: 20:12:54
(UTC+02:00)

ISS - Pass Details

Date: 21 April 2026
Orbit: 414 x 424 km, 51.6° (Epoch: 12 May)

Event Time Altitude Azimuth Distance (km) Brightness Sun altitude
Exits shadow 04:42:26 11° 168° (SSE) 1,430 -1.3 -14.7°
Maximum altitude 04:44:02 14° 138° (SE) 1,259 -1.3 -14.5°
Drops below altitude 10° 04:45:56 10° 103° (ESE) 1,502 -0.4 -14.2°
Sets 04:48:45 0° 78° (ENE) 2,374 1.3 -13.9°
